Lawton, OK

1:25 AM CDT on July 30, 2016 (GMT -0500)
Lawton-Fort Sill Regional

Weather History for KLAW - August, 2013

Change the Weather History Date:

Sunday, August 18, 2013

  Actual Average Record
Temperature  
Mean Temperature 78 °F -  
Max Temperature 88 °F 96 °F 108 °F (2011)
Min Temperature 68 °F 71 °F 63 °F (1992)
Cooling Degree Days 13    
Growing Degree Days 28 (Base 50)    
Moisture  
Dew Point 62 °F    
Average Humidity 61    
Maximum Humidity 81    
Minimum Humidity 40    
Precipitation  
Precipitation 0.00 in - - ()
Sea Level Pressure  
Sea Level Pressure 30.04 in    
Wind  
Wind Speed 7 mph (ESE)    
Max Wind Speed 15 mph    
Max Gust Speed 21 mph    
Visibility 10 miles    
Events      
Averages and records for this station are not official NWS values.
T = Trace of Precipitation, MM = Missing Value Source: NWS Daily Summary

Daily Weather History Graph

Daily Weather History Graph

Search for Another Location

Airport or City:

Trip Planner

Search our weather history database for the weather conditions in past years. The results will help you decide how hot, cold, wet, or windy it might be!

Date:

Astronomy

Aug. 18, 2013 Rise Set
Actual Time 6:56 AM CDT 8:17 PM CDT
Civil Twilight 6:30 AM CDT 8:43 PM CDT
Nautical Twilight 5:58 AM CDT 9:15 PM CDT
Astronomical Twilight 5:25 AM CDT 9:48 PM CDT
Moon 6:22 PM CDT (8/18) 4:11 AM CDT (8/18)
Length of Visible Light 14h 13m
Length of Day
13h 20m
Waxing Gibbous, 92% of the Moon is Illuminated
Aug 18
Waxing Gibbous
Aug 20
Full
Aug 28
Last Quarter
Sep 5
New
Sep 12
First Quarter

Hourly Weather History & Observations

Time (CDT) Temp. Heat Index Dew Point Humidity Pressure Visibility Wind Dir Wind Speed Gust Speed Precip Events Conditions
12:53 AM 73.0 °F - 64.0 °F 73% 30.05 in 10.0 mi East 5.8 mph - N/A   Overcast
1:53 AM 72.0 °F - 63.0 °F 73% 30.05 in 10.0 mi ESE 5.8 mph - N/A   Scattered Clouds
2:53 AM 70.0 °F - 63.0 °F 78% 30.04 in 10.0 mi East 4.6 mph - N/A   Clear
3:53 AM 69.1 °F - 63.0 °F 81% 30.03 in 10.0 mi ESE 5.8 mph - N/A   Scattered Clouds
4:53 AM 69.1 °F - 62.1 °F 78% 30.04 in 10.0 mi East 3.5 mph - N/A   Scattered Clouds
5:53 AM 69.1 °F - 62.1 °F 78% 30.05 in 10.0 mi ENE 3.5 mph - N/A   Overcast
6:53 AM 68.0 °F - 62.1 °F 81% 30.06 in 10.0 mi ENE 5.8 mph - N/A   Mostly Cloudy
7:53 AM 68.0 °F - 62.1 °F 81% 30.08 in 10.0 mi Calm Calm - N/A   Partly Cloudy
8:53 AM 71.1 °F - 62.1 °F 73% 30.09 in 10.0 mi East 4.6 mph - N/A   Overcast
9:53 AM 75.9 °F - 62.1 °F 62% 30.10 in 10.0 mi SE 8.1 mph - N/A   Overcast
10:53 AM 79.0 °F - 63.0 °F 58% 30.10 in 10.0 mi SE 8.1 mph - N/A   Mostly Cloudy
11:53 AM 81.0 °F 81.9 °F 62.1 °F 52% 30.09 in 10.0 mi SE 10.4 mph - N/A   Clear
12:53 PM 84.9 °F 85.9 °F 63.0 °F 48% 30.08 in 10.0 mi SE 10.4 mph 18.4 mph N/A   Clear
1:53 PM 84.9 °F 85.0 °F 61.0 °F 44% 30.05 in 10.0 mi SE 10.4 mph - N/A   Partly Cloudy
2:53 PM 87.1 °F 87.5 °F 62.1 °F 43% 30.04 in 10.0 mi ESE 12.7 mph - N/A   Clear
3:53 PM 88.0 °F 88.7 °F 63.0 °F 43% 30.02 in 10.0 mi SE 10.4 mph - N/A   Partly Cloudy
4:53 PM 88.0 °F 88.4 °F 62.1 °F 42% 30.00 in 10.0 mi ESE 15.0 mph 20.7 mph N/A   Clear
5:53 PM 88.0 °F 88.4 °F 62.1 °F 42% 29.99 in 10.0 mi SE 15.0 mph - N/A   Clear
6:53 PM 87.1 °F 86.7 °F 60.1 °F 40% 29.98 in 10.0 mi ESE 12.7 mph - N/A   Clear
7:53 PM 84.0 °F 84.5 °F 62.1 °F 47% 29.98 in 10.0 mi ESE 6.9 mph - N/A   Clear
8:53 PM 81.0 °F 81.9 °F 62.1 °F 52% 29.99 in 10.0 mi ESE 10.4 mph - N/A   Clear
9:53 PM 78.1 °F - 62.1 °F 58% 30.00 in 10.0 mi ESE 6.9 mph - N/A   Clear
10:53 PM 75.0 °F - 62.1 °F 64% 30.03 in 10.0 mi ESE 4.6 mph - N/A   Clear
11:53 PM 73.9 °F - 63.0 °F 68% 30.04 in 10.0 mi ESE 4.6 mph - N/A   Clear